CW9203 Weather Reports


Display with metric or nautical units.
time (UTC)temp
F
wind
direction
speed
MPH
gust
MPH
rain 1hr
in
rain 24hr
in
rain mn
in
humidity
%
barometer
mb
20260901104304 53 235 3.0 8.0 0.00 0.10 0.06 28 1021.6
20260901102306 53 231 3.0 9.0 0.00 0.10 0.06 14 1021.8
20260901101804 53 245 4.0 8.0 0.00 0.10 0.06 11 1021.9
20260901101304 53 230 4.0 9.0 0.00 0.10 0.06 11 1021.8
20260901095306 54 217 5.0 9.0 0.00 0.10 0.06 27 1021.6
20260901094804 55 210 6.0 10.0 0.00 0.10 0.06 33 1021.6
20260901092305 56 245 5.0 12.0 0.00 0.10 0.06 64 1021.3
20260901090303 55 205 2.0 7.0 0.00 0.10 0.06 59 1021.3
20260901085804 55 236 3.0 6.0 0.00 0.10 0.06 56 1021.2
20260901084303 55 216 4.0 8.0 0.00 0.10 0.06 50 1021.1
20260901075307 56 205 5.0 12.0 0.00 0.10 0.06 63 1020.8
20260901074303 56 211 4.0 12.0 0.00 0.10 0.06 64 1020.7
20260901072805 55 347 5.0 8.0 0.00 0.10 0.06 35 1018.0
20260831213305 56 185 4.0 18.0 0.00 0.10 0.06 29 1017.4
20260831212306 56 206 5.0 12.0 0.00 0.10 0.06 32 1017.1
20260831211305 56 222 4.0 15.0 0.00 0.10 0.06 36 1017.2
20260831210805 56 177 4.0 12.0 0.00 0.10 0.06 35 1017.2
20260831203805 54 199 5.0 20.0 0.00 0.10 0.06 4 1016.8
20260831202804 54 235 9.0 17.0 0.00 0.10 0.06 4 1016.7
20260831201805 56 226 5.0 13.0 0.00 0.10 0.06 4 1016.7
20260831200804 56 221 6.0 13.0 0.02 0.10 0.06 4 1016.5
20260831200305 55 232 6.0 13.0 0.02 0.11 0.06 4 1016.5
20260831194807 55 229 5.0 13.0 0.02 0.12 0.06 4 1016.4
20260831194307 55 209 4.0 10.0 0.02 0.12 0.06 4 1016.4
20260831192805 55 241 2.0 7.0 0.02 0.12 0.06 4 1016.3
20260831192306 54 232 2.0 7.0 0.02 0.12 0.06 4 1016.4
20260831191805 54 222 1.0 10.0 0.02 0.12 0.06 4 1016.4
20260831190304 54 222 3.0 14.0 0.01 0.10 0.05 4 1016.1
20260831185806 54 220 6.0 13.0 0.01 0.10 0.05 4 1016.2
20260831185306 54 218 5.0 15.0 0.01 0.10 0.05 4 1016.4
20260831184305 55 214 9.0 24.0 0.02 0.10 0.05 4 1016.3
20260831183804 55 211 6.0 10.0 0.02 0.09 0.04 4 1015.9
20260831182805 55 222 5.0 10.0 0.02 0.09 0.04 4 1015.7
20260831181806 54 230 6.0 13.0 0.02 0.09 0.04 4 1015.7
20260831180306 54 220 3.0 10.0 0.02 0.09 0.04 4 1015.5
20260831175804 54 222 2.0 7.0 0.02 0.09 0.04 4 1015.4
20260831175306 54 209 4.0 12.0 0.02 0.09 0.04 4 1015.3
20260831173804 55 219 2.0 6.0 0.01 0.07 0.02 4 1014.9
20260831173306 55 214 2.0 9.0 0.01 0.07 0.02 4 1015.0
20260831172805 55 160 2.0 6.0 0.01 0.07 0.02 4 1014.9
20260831172306 55 234 5.0 12.0 0.01 0.07 0.02 4 1014.6
20260831171304 55 235 5.0 9.0 0.01 0.07 0.02 4 1014.4
20260831170305 55 229 6.0 13.0 0.01 0.07 0.02 4 1014.3
20260831164304 55 234 2.0 6.0 0.01 0.06 0.01 4 1014.1
20260831163304 55 231 5.0 13.0 0.01 0.06 0.01 4 1014.2
20260831162306 54 247 8.0 13.0 0.01 0.06 0.01 4 1014.1
20260831155803 54 219 3.0 16.0 0.01 0.06 0.01 4 1014.1
20260831155306 55 216 5.0 17.0 0.01 0.06 0.01 4 1014.1
20260831152804 55 234 5.0 13.0 0.00 0.06 0.00 4 1013.7
20260831152306 54 221 6.0 14.0 0.00 0.06 0.00 4 1013.7
20260831150303 54 216 5.0 12.0 0.00 0.06 0.00 4 1013.9
20260831145306 55 238 6.0 13.0 0.00 0.06 0.00 4 1013.9
20260831144304 55 241 5.0 12.0 0.00 0.06 0.00 4 1014.3
20260831143803 55 228 5.0 9.0 0.00 0.06 0.00 4 1014.3
20260831141304 54 241 6.0 15.0 0.00 0.06 0.00 4 1014.4
20260831135804 54 228 3.0 12.0 0.00 0.07 0.00 4 1014.3
20260831135306 54 215 3.0 17.0 0.00 0.07 0.00 4 1014.4
20260831133804 55 186 2.0 18.0 0.00 0.07 0.00 4 1014.3
20260831133304 55 222 2.0 7.0 0.00 0.07 0.00 4 1014.3
20260831131304 54 194 3.0 8.0 0.00 0.07 0.00 4 1014.4
20260831125306 55 242 2.0 8.0 0.00 0.07 0.00 4 1014.0
20260831124303 55 239 1.0 7.0 0.00 0.07 0.00 4 1014.0
20260831123804 55 238 1.0 10.0 0.00 0.07 0.00 4 1014.0
20260831122306 55 260 4.0 12.0 0.00 0.07 0.00 16 1013.8
20260831120304 55 222 5.0 12.0 0.00 0.07 0.00 21 1014.0
20260831114804 55 212 6.0 15.0 0.00 0.07 0.07 10 1013.9
20260831113303 55 231 6.0 15.0 0.00 0.07 0.07 4 1013.8
20260831110804 55 228 9.0 15.0 0.00 0.07 0.07 4 1013.7